Location: Newark
(41.8600°N, 14.8800°E)
Time: 10:05:11
(UTC+00:00)

N. Korean satellite - Visible Passes

Search period start: 13 November 2019 00:00
Search period end: 23 November 2019 00:00
Orbit: 456 x 506 km, 97.2° (Epoch: 12 November)

Date Brightness Start Highest point End Pass type
(mag) Time Alt. Az. Time Alt. Az. Time Alt. Az.
13 Nov 9.7 04:02:35 10° NE 04:05:11 18° E 04:07:45 10° SE visible
13 Nov 6.8 16:10:21 10° S 16:13:55 78° WSW 16:17:34 10° NNW visible
14 Nov 6.6 05:09:39 10° N 05:13:21 61° WNW 05:16:59 10° SSW visible
14 Nov 10.3 17:21:29 10° WSW 17:22:17 11° W 17:23:03 10° WNW visible
15 Nov 7.2 04:44:18 10° NNE 04:47:59 61° E 04:51:38 10° S visible
15 Nov 9.5 16:53:52 10° SW 16:56:41 21° W 16:59:33 10° NW visible
16 Nov 8.9 04:19:17 10° NE 04:22:33 28° E 04:25:45 10° SSE visible
16 Nov 7.9 16:27:43 10° S 16:31:11 44° W 16:34:43 10° NNW visible
17 Nov 10.0 03:54:54 10° ENE 03:56:59 14° E 03:59:04 10° SE visible
17 Nov 6.6 16:02:10 10° SSE 16:05:46 83° ENE 16:09:28 10° N visible
18 Nov 6.5 05:01:30 10° N 05:05:14 78° WNW 05:08:53 10° SSW visible
18 Nov 10.0 17:12:10 10° WSW 17:14:02 13° W 17:15:55 10° WNW visible
19 Nov 7.8 04:36:14 10° NNE 04:39:49 47° E 04:43:22 10° S visible
19 Nov 9.0 16:45:21 10° SSW 16:48:28 27° W 16:51:38 10° NW visible
20 Nov 9.3 04:11:21 10° NE 04:14:20 23° E 04:17:16 10° SSE visible
20 Nov 7.4 16:19:24 10° S 16:22:59 57° W 16:26:38 10° NNW visible
21 Nov 10.2 03:47:29 10° ENE 03:48:44 11° E 03:49:59 10° ESE visible
21 Nov 6.9 05:18:50 10° N 05:22:23 45° WNW 05:25:52 10° SSW visible
22 Nov 6.7 04:53:20 10° NNE 04:57:03 82° ESE 05:00:40 10° S visible
22 Nov 9.8 17:03:20 10° SW 17:05:45 17° W 17:08:14 10° NW visible
